FW7746 Weather Reports


time (UTC)temp
C
wind
direction
speed
KPH
gust
KPH
rain 1hr
cm
rain 24hr
cm
rain mn
cm
humidity
%
barometer
mb
20260505224604 25 323 1.6 8.0 0.00 0.00 0.00 28 1009.4
20260505224104 25 300 1.6 4.8 0.00 0.00 0.00 27 1009.4
20260505223604 25 319 3.2 14.5 0.00 0.00 0.00 26 1009.5
20260505223104 26 333 0.0 3.2 0.00 0.00 0.00 26 1009.4
20260505222104 25 333 4.8 14.5 0.00 0.00 0.00 27 1009.5
20260505221604 26 331 0.0 3.2 0.00 0.00 0.00 26 1009.5
20260505221104 25 311 0.0 4.8 0.00 0.00 0.00 26 1009.5
20260505220604 25 327 1.6 8.0 0.00 0.00 0.00 27 1009.6
20260505220104 25 320 1.6 9.7 0.00 0.00 0.00 26 1009.6
20260505215604 25 314 1.6 4.8 0.00 0.00 0.00 26 1009.5
20260505215104 25 324 8.0 20.9 0.00 0.00 0.00 27 1009.6
20260505214604 25 315 1.6 8.0 0.00 0.00 0.00 28 1009.7
20260505214104 25 318 6.4 16.1 0.00 0.00 0.00 28 1009.7
20260505212604 25 330 4.8 16.1 0.00 0.00 0.00 28 1009.8
20260505212104 25 325 0.0 4.8 0.00 0.00 0.00 30 1009.8
20260505210604 25 325 6.4 16.1 0.00 0.00 0.00 29 1009.8
20260505210105 25 288 0.0 4.8 0.00 0.00 0.00 29 1009.8
20260505205604 25 330 6.4 12.9 0.00 0.00 0.00 28 1009.7
20260505205104 25 317 3.2 14.5 0.00 0.00 0.00 30 1009.7
20260505204604 25 325 1.6 14.5 0.00 0.00 0.00 29 1009.7
20260505204104 25 310 3.2 16.1 0.00 0.00 0.00 31 1009.6
20260505203604 25 320 1.6 8.0 0.00 0.00 0.00 30 1009.6
20260505202105 25 47 1.6 8.0 0.00 0.00 0.00 32 1009.8
20260505201604 25 312 4.8 14.5 0.00 0.00 0.00 30 1009.9
20260505200604 24 316 1.6 11.3 0.00 0.00 0.00 32 1010.1
20260505200104 24 330 3.2 14.5 0.00 0.00 0.00 33 1010.2
20260505195604 23 49 1.6 4.8 0.00 0.00 0.00 35 1010.2
20260505194604 23 329 3.2 12.9 0.00 0.00 0.00 34 1010.2
20260505194104 23 327 3.2 8.0 0.00 0.00 0.00 34 1010.2
20260505193604 23 335 3.2 9.7 0.00 0.00 0.00 33 1010.4
20260505193104 23 321 1.6 9.7 0.00 0.00 0.00 35 1010.3
20260505192604 23 320 3.2 14.5 0.00 0.00 0.00 35 1010.3
20260505192104 23 336 3.2 14.5 0.00 0.00 0.00 34 1010.3
20260505191604 23 323 0.0 4.8 0.00 0.00 0.00 33 1010.3
20260505191104 23 323 1.6 9.7 0.00 0.00 0.00 33 1010.3
20260505190605 23 313 0.0 9.7 0.00 0.00 0.00 34 1010.3
20260505190104 23 355 0.0 4.8 0.00 0.00 0.00 36 1010.3
20260505185604 22 341 1.6 4.8 0.00 0.00 0.00 35 1010.4
20260505185104 22 329 1.6 4.8 0.00 0.00 0.00 35 1010.3
20260505184604 22 319 4.8 9.7 0.00 0.00 0.00 36 1010.5
20260505184104 22 336 1.6 4.8 0.00 0.00 0.00 37 1010.4
20260505183604 22 315 0.0 0.0 0.00 0.00 0.00 35 1010.5
20260505182604 22 334 0.0 3.2 0.00 0.00 0.00 37 1010.5
20260505182104 21 340 0.0 3.2 0.00 0.00 0.00 35 1010.4
20260505181604 21 345 1.6 4.8 0.00 0.00 0.00 37 1010.4
20260505180604 21 337 0.0 8.0 0.00 0.00 0.00 38 1010.5
20260505180105 21 335 1.6 4.8 0.00 0.00 0.00 37 1010.5
20260505175604 21 69 0.0 3.2 0.00 0.00 0.00 38 1010.5
20260505175104 20 23 0.0 1.6 0.00 0.00 0.00 40 1010.6
20260505174604 20 340 0.0 4.8 0.00 0.00 0.00 39 1010.6
20260505174104 20 46 0.0 3.2 0.00 0.00 0.00 40 1010.6
20260505173604 19 56 0.0 4.8 0.00 0.00 0.00 40 1010.6
20260505173104 19 335 0.0 4.8 0.00 0.00 0.00 41 1010.5
20260505172604 19 338 1.6 4.8 0.00 0.00 0.00 41 1010.5
20260505172104 19 347 0.0 4.8 0.00 0.00 0.00 40 1010.4
20260505171104 19 265 0.0 3.2 0.00 0.00 0.00 41 1010.4
20260505170606 19 250 0.0 3.2 0.00 0.00 0.00 41 1010.5
20260505170104 19 186 0.0 0.0 0.00 0.00 0.00 42 1010.5
20260505165604 18 229 0.0 0.0 0.00 0.00 0.00 42 1010.6
20260505165104 18 170 0.0 0.0 0.00 0.00 0.00 43 1010.6
20260505164104 18 174 0.0 0.0 0.00 0.00 0.00 45 1010.6
20260505163604 17 173 0.0 0.0 0.00 0.00 0.00 45 1010.7
20260505163104 17 236 0.0 0.0 0.00 0.00 0.00 48 1010.6
20260505162604 17 236 0.0 0.0 0.00 0.00 0.00 50 1010.6
20260505162104 16 235 0.0 0.0 0.00 0.00 0.00 52 1010.6
20260505161604 16 236 0.0 0.0 0.00 0.00 0.00 53 1010.5
20260505161104 15 237 0.0 0.0 0.00 0.00 0.00 55 1010.5
20260505160104 13 238 0.0 0.0 0.00 0.00 0.00 63 1010.6
20260505153104 12 238 0.0 0.0 0.00 0.00 0.00 66 1010.7
20260505152604 12 238 0.0 0.0 0.00 0.00 0.00 66 1010.6
20260505152103 12 238 0.0 0.0 0.00 0.00 0.00 66 1010.5
20260505151604 12 238 0.0 0.0 0.00 0.00 0.00 67 1010.4
20260505151103 12 238 0.0 0.0 0.00 0.00 0.00 67 1010.5
20260505150104 11 238 0.0 0.0 0.00 0.00 0.00 68 1010.4
20260505140603 8 157 0.0 1.6 0.00 0.00 0.00 76 1009.6
20260505130103 7 258 0.0 0.0 0.00 0.00 0.00 77 1009.2
20260505124103 7 281 0.0 0.0 0.00 0.00 0.00 77 1009.1
20260505123603 7 284 0.0 0.0 0.00 0.00 0.00 77 1009.1
20260505123104 7 284 0.0 0.0 0.00 0.00 0.00 76 1009.0
20260505121604 7 287 0.0 0.0 0.00 0.00 0.00 77 1008.8
20260505121103 7 287 0.0 0.0 0.00 0.00 0.00 77 1008.8
20260505120604 7 287 0.0 0.0 0.00 0.00 0.00 77 1008.8
20260505115103 7 287 0.0 0.0 0.00 0.00 0.00 76 1008.7
20260505114603 7 287 0.0 0.0 0.00 0.00 0.00 76 1008.7
20260505114103 8 287 0.0 0.0 0.00 0.00 0.00 76 1008.7
20260505113604 8 287 0.0 0.0 0.00 0.00 0.00 76 1008.8
20260505113103 8 287 0.0 0.0 0.00 0.00 0.00 76 1008.7
20260505112603 8 287 0.0 0.0 0.00 0.00 0.00 76 1008.7
20260505112103 8 287 0.0 0.0 0.00 0.00 0.00 75 1008.8
20260505111603 8 287 0.0 0.0 0.00 0.00 0.00 75 1008.7
20260505111103 8 287 0.0 0.0 0.00 0.00 0.00 75 1008.7
20260505110603 8 287 0.0 0.0 0.00 0.00 0.00 75 1008.7
20260505102103 8 292 0.0 0.0 0.00 0.00 0.00 74 1008.5
20260505101603 8 292 0.0 0.0 0.00 0.00 0.00 74 1008.4
20260505100603 9 292 0.0 0.0 0.00 0.00 0.00 74 1008.5
20260505100104 9 292 0.0 0.0 0.00 0.00 0.00 74 1008.6
20260505095603 9 292 0.0 0.0 0.00 0.00 0.00 74 1008.6
20260505095103 9 292 0.0 0.0 0.00 0.00 0.00 73 1008.5
20260505094604 9 324 0.0 0.0 0.00 0.00 0.00 72 1008.5
20260505094103 9 325 0.0 0.0 0.00 0.00 0.00 71 1008.5
20260505093603 9 325 0.0 0.0 0.00 0.00 0.00 71 1008.5
20260505093103 9 325 0.0 0.0 0.00 0.00 0.00 71 1008.6
20260505092603 9 325 0.0 0.0 0.00 0.00 0.00 70 1008.5
20260505092103 9 325 0.0 0.0 0.00 0.00 0.00 70 1008.6
20260505091103 9 325 0.0 0.0 0.00 0.00 0.00 69 1008.5
20260505090603 10 325 0.0 0.0 0.00 0.00 0.00 69 1008.4
20260505085603 10 325 0.0 0.0 0.00 0.00 0.00 69 1008.4
20260505085104 10 325 0.0 0.0 0.00 0.00 0.00 68 1008.4
20260505084603 10 325 0.0 0.0 0.00 0.00 0.00 68 1008.5
20260505084103 10 325 0.0 0.0 0.00 0.00 0.00 68 1008.5
20260505083603 10 325 0.0 0.0 0.00 0.00 0.00 67 1008.6
20260505083103 10 325 0.0 0.0 0.00 0.00 0.00 67 1008.6
20260505082604 10 325 0.0 0.0 0.00 0.00 0.00 66 1008.6
20260505082103 10 325 0.0 0.0 0.00 0.00 0.00 65 1008.6
20260505081603 10 325 0.0 0.0 0.00 0.00 0.00 64 1008.5
20260505081103 10 325 0.0 0.0 0.00 0.00 0.00 62 1008.5
20260505080603 10 325 0.0 0.0 0.00 0.00 0.00 61 1008.5
20260505080104 11 325 0.0 0.0 0.00 0.00 0.00 58 1008.4
20260505075603 11 325 0.0 0.0 0.00 0.00 0.00 56 1008.5
20260505075104 11 325 0.0 0.0 0.00 0.00 0.00 56 1008.6
20260505074603 11 325 0.0 0.0 0.00 0.00 0.00 55 1008.6
20260505073603 11 325 0.0 0.0 0.00 0.00 0.00 54 1008.6
20260505072604 11 325 0.0 0.0 0.00 0.00 0.00 53 1008.6
20260505072103 12 325 0.0 0.0 0.00 0.00 0.00 53 1008.6
20260505071603 12 325 0.0 0.0 0.00 0.00 0.00 52 1008.5
20260505071103 12 325 0.0 0.0 0.00 0.00 0.00 52 1008.5
20260505070603 12 325 0.0 0.0 0.00 0.00 0.00 51 1008.5
20260505070104 12 325 0.0 0.0 0.00 0.00 0.00 49 1008.2
20260505065603 12 325 0.0 0.0 0.00 0.00 0.00 49 1008.2
20260505065103 12 325 0.0 0.0 0.00 0.00 0.00 48 1008.2
20260505064103 13 325 0.0 0.0 0.00 0.00 0.00 47 1008.0
20260505063604 13 325 0.0 0.0 0.00 0.00 0.00 46 1007.8
20260505063103 13 325 0.0 0.0 0.00 0.00 0.00 45 1007.9
20260505062603 13 325 0.0 0.0 0.00 0.00 0.00 45 1007.9
20260505061604 14 325 0.0 0.0 0.00 0.00 0.00 43 1007.7
20260505060104 15 325 0.0 0.0 0.00 0.00 0.00 41 1007.7
20260505055603 15 325 0.0 0.0 0.00 0.00 0.00 40 1007.8
20260505055103 16 325 0.0 0.0 0.00 0.00 0.00 40 1007.8
20260505054603 16 325 0.0 0.0 0.00 0.00 0.00 39 1007.8
20260505054104 16 325 0.0 0.0 0.00 0.00 0.00 38 1007.7
20260505053604 16 325 0.0 0.0 0.00 0.00 0.00 38 1007.7
20260505053103 16 325 0.0 1.6 0.00 0.00 0.00 37 1007.6
20260505052604 16 319 0.0 0.0 0.00 0.00 0.00 38 1007.7
20260505052103 16 319 0.0 0.0 0.00 0.00 0.00 39 1007.8
20260505051603 16 319 0.0 0.0 0.00 0.00 0.00 38 1007.7
20260505051103 16 319 0.0 4.8 0.00 0.00 0.00 38 1007.7
20260505050603 16 2 0.0 4.8 0.00 0.00 0.00 39 1007.7
20260505050104 17 331 0.0 0.0 0.00 0.00 0.00 39 1007.6
20260505041604 17 339 1.6 8.0 0.00 0.00 0.00 43 1006.8
20260505041104 17 274 1.6 4.8 0.00 0.00 0.00 44 1006.7
20260505040604 17 308 0.0 14.5 0.00 0.00 0.00 44 1006.7
20260505040104 17 322 0.0 4.8 0.00 0.00 0.00 45 1006.6
20260505035103 17 312 0.0 4.8 0.00 0.00 0.00 45 1006.4
20260505034603 18 345 1.6 16.1 0.00 0.00 0.00 45 1006.4
20260505034103 18 316 1.6 9.7 0.00 0.00 0.00 44 1006.4
20260505033603 18 268 0.0 12.9 0.00 0.00 0.00 44 1006.3
20260505033103 18 328 4.8 16.1 0.00 0.00 0.00 43 1006.3
20260505032604 18 331 3.2 14.5 0.00 0.00 0.00 41 1006.2
20260505032103 19 337 1.6 19.3 0.00 0.00 0.00 40 1006.1
20260505031603 19 258 1.6 16.1 0.00 0.00 0.00 38 1006.0
20260505031103 19 312 0.0 14.5 0.00 0.00 0.00 36 1005.8
20260505030603 20 334 0.0 8.0 0.00 0.00 0.00 36 1005.9
20260505030104 20 327 3.2 19.3 0.00 0.00 0.00 34 1005.8
20260505025603 20 333 1.6 12.9 0.00 0.00 0.00 33 1005.8
20260505025104 20 278 1.6 16.1 0.00 0.00 0.00 33 1005.8
20260505024604 20 329 4.8 19.3 0.00 0.00 0.00 33 1005.5
20260505024103 20 233 3.2 14.5 0.00 0.00 0.00 33 1005.4
20260505023603 21 301 1.6 12.9 0.00 0.00 0.00 33 1005.3
20260505023103 21 275 4.8 16.1 0.00 0.00 0.00 33 1005.3
20260505022604 21 324 8.0 20.9 0.00 0.00 0.00 32 1005.2
20260505022104 21 305 6.4 19.3 0.00 0.00 0.00 32 1005.2
20260505021604 21 324 1.6 14.5 0.00 0.00 0.00 32 1005.2
20260505020603 22 349 8.0 24.1 0.00 0.00 0.00 31 1005.2
20260505020104 22 323 4.8 16.1 0.00 0.00 0.00 30 1005.2
20260505015604 22 261 4.8 20.9 0.00 0.00 0.00 30 1005.2
20260505014603 22 320 3.2 24.1 0.00 0.00 0.00 29 1005.2
20260505014104 22 326 9.7 24.1 0.00 0.00 0.00 29 1005.2
20260505013603 23 329 3.2 20.9 0.00 0.00 0.00 30 1005.2
20260505013103 23 314 1.6 19.3 0.00 0.00 0.00 30 1005.2
20260505012603 23 292 1.6 19.3 0.00 0.00 0.00 30 1005.3
20260505012104 23 329 11.3 25.7 0.00 0.00 0.00 29 1005.2
20260505011604 23 323 3.2 22.5 0.00 0.00 0.00 29 1005.3
20260505011103 23 316 1.6 19.3 0.00 0.00 0.00 29 1005.2
20260505010103 24 325 1.6 16.1 0.00 0.00 0.00 26 1005.1
20260505005603 24 327 4.8 22.5 0.00 0.00 0.00 24 1005.1
20260505005103 24 315 3.2 19.3 0.00 0.00 0.00 23 1005.1
20260505004604 24 332 3.2 12.9 0.00 0.00 0.00 25 1005.1
20260505003603 24 325 1.6 16.1 0.00 0.00 0.00 26 1005.3
20260505002603 24 328 3.2 9.7 0.00 0.00 0.00 23 1005.5
20260505002103 24 325 4.8 16.1 0.00 0.00 0.00 22 1005.4
20260505001603 23 323 4.8 16.1 0.00 0.00 0.00 23 1005.6
20260505001103 23 327 8.0 20.9 0.00 0.00 0.00 23 1005.6
20260505000603 23 327 0.0 19.3 0.00 0.00 0.00 25 1005.5
20260504235604 23 330 1.6 12.9 0.00 0.00 0.00 24 1005.5
20260504234603 24 307 4.8 16.1 0.00 0.00 0.00 24 1005.4
20260504234103 23 327 4.8 14.5 0.00 0.00 0.00 25 1005.5
20260504233603 24 316 3.2 14.5 0.00 0.00 0.00 24 1005.6
20260504233103 24 319 3.2 14.5 0.00 0.00 0.00 24 1005.6
20260504232603 25 332 3.2 19.3 0.00 0.00 0.00 24 1005.7
20260504232103 25 325 6.4 25.7 0.00 0.00 0.00 23 1005.8
20260504231603 25 317 4.8 16.1 0.00 0.00 0.00 23 1005.7
20260504231103 25 318 4.8 14.5 0.00 0.00 0.00 24 1005.7
20260504230603 24 339 3.2 12.9 0.00 0.00 0.00 24 1005.7
20260504230103 25 323 3.2 19.3 0.00 0.00 0.00 24 1005.7
20260504225603 25 320 1.6 19.3 0.00 0.00 0.00 23 1005.7
20260504225104 25 326 4.8 14.5 0.00 0.00 0.00 23 1005.8